Location: Bothwell
(42.3833°S, 147.0000°E)
Time: 09:22:31
(UTC+11:00)

Envisat - Pass Details

Date: 02 December 2022
Orbit: 763 x 765 km, 98.2° (Epoch: 28 January)

Event Time Altitude Azimuth Distance (km) Brightness Sun altitude
Rises 04:40:34 0° 9° (N) 3,223 5.9 -8.2°
Reaches altitude 10° 04:42:52 10° 6° (N) 2,305 5.2 -7.9°
Maximum altitude 04:47:56 71° 282° (WNW) 819 3.0 -7.2°
Drops below altitude 10° 04:53:05 10° 197° (SSW) 2,335 5.8 -6.4°
Sets 04:55:25 0° 195° (SSW) 3,269 6.6 -6.1°
